Back to catalog

STARLINK-36638

AliveCommunicationsSSO
NORAD 67594·PAYLOAD·🇺🇸 United States

Launched Jan 29, 2026 from Vandenberg Space Force Base

Loading…

Next Passes (next 24 hours)

TLE

FreshSource: CelesTrak SupGP

Epoch: Sep 14, 2026, 15:00 UTC

1 67594C 26018F   26257.62548611  .00065154  00000+0  20226-2 0  2574
2 67594  97.2854 321.0889 0000568 111.1969 298.8686 15.33406219    18

Track STARLINK-36638 in real time with AllMySat

Download on the App Store